Date String (YYYY-MM-DD hh:mm:ss) UTC,Instrument flags,Ambient pressure (hPa),Sample flow (lpm),Bypass flow (lpm),Sample temperature (°C),Ambient temperature (°C),ASC tube jacket temperature (°C),LED temperature (°C),Box temperature (°C),Sample RH (%),Span deviation,Mass concentration (μg/m³),Mass concentration (μg/m³),Mass concentration (μg/m³)
DateTimeUTC,F1_M11,P_M11,Q1_M11,Q2_M11,T1_M11,T2_M11,T3_M11,T4_M11,T5_M11,U1_M11,ZSPAN_M11,X0_M11,X2_M11,X1_M11
2022-08-31 07:00:00,,0831.6,5.00,0.00,29.8,28.7,00.0,38.5,31.7,20.4,0000.0,0017.12,0006.47,0005.40
2022-08-31 07:01:00,,0831.6,5.00,0.00,29.8,28.8,00.0,38.5,31.7,20.4,0000.0,0016.42,0006.47,0005.40
2022-08-31 07:02:00,,0831.6,5.00,0.00,29.8,28.8,00.0,38.5,31.7,20.4,0000.0,0016.10,0006.43,0005.40
2022-08-31 07:03:00,,0831.6,5.01,0.00,29.9,28.9,00.0,38.5,31.8,20.4,0000.0,0015.82,0006.42,0005.41
2022-08-31 07:04:00,,0831.6,5.00,0.00,29.9,28.9,00.0,38.6,31.8,20.4,0000.0,0016.18,0006.46,0005.41
2022-08-31 07:05:00,,0831.7,4.99,0.00,29.9,29.0,00.0,38.6,31.8,20.3,0000.0,0015.47,0006.42,0005.42
2022-08-31 07:06:00,,0831.7,4.99,0.00,30.0,28.9,00.0,38.6,31.9,20.2,0000.0,0015.54,0006.42,0005.41
2022-08-31 07:07:00,,0831.7,5.01,0.00,30.0,27.8,00.0,38.6,31.8,20.1,0000.0,0015.31,0006.41,0005.41
2022-08-31 07:08:00,,0831.6,4.99,0.00,29.9,27.0,00.0,38.6,31.7,20.2,0000.0,0014.69,0006.39,0005.41
2022-08-31 07:09:00,,0831.7,4.99,0.00,29.9,27.0,00.0,38.5,31.5,20.5,0000.0,0014.96,0006.39,0005.42
2022-08-31 07:10:00,,0831.6,5.00,0.00,29.8,27.2,00.0,38.5,31.4,20.7,0000.0,0014.31,0006.38,0005.43
2022-08-31 07:11:00,,0831.6,5.00,0.00,29.7,27.5,00.0,38.5,31.4,20.8,0000.0,0014.77,0006.41,0005.43
2022-08-31 07:12:00,,0831.6,4.99,0.00,29.7,27.8,00.0,38.5,31.4,20.8,0000.0,0014.63,0006.39,0005.43
2022-08-31 07:13:00,,0831.6,5.01,0.00,29.7,28.0,00.0,38.4,31.5,20.7,0000.0,0014.70,0006.37,0005.42
2022-08-31 07:14:00,,0831.6,5.00,0.00,29.7,28.1,00.0,38.5,31.5,20.6,0000.0,0014.75,0006.35,0005.41
2022-08-31 07:15:00,,0831.6,5.01,0.00,29.7,28.3,00.0,38.5,31.5,20.6,0000.0,0014.97,0006.35,0005.39
2022-08-31 07:16:00,,0831.5,5.00,0.00,29.7,28.4,00.0,38.5,31.6,20.6,0000.0,0015.84,0006.35,0005.38
2022-08-31 07:17:00,,0831.5,5.00,0.00,29.8,28.5,00.0,38.5,31.6,20.5,0000.0,0016.42,0006.37,0005.37
2022-08-31 07:18:00,,0831.5,4.99,0.00,29.8,28.6,00.0,38.5,31.6,20.6,0000.0,0017.01,0006.38,0005.38
2022-08-31 07:19:00,,0831.5,5.00,0.00,29.8,28.7,00.0,38.5,31.7,20.5,0000.0,0016.92,0006.39,0005.38
2022-08-31 07:20:00,,0831.6,5.01,0.00,29.8,28.7,00.0,38.5,31.7,20.4,0000.0,0016.42,0006.38,0005.37
2022-08-31 07:21:00,,0831.5,5.01,0.00,29.8,28.8,00.0,38.5,31.7,20.4,0000.0,0017.13,0006.35,0005.36
2022-08-31 07:22:00,,0831.5,4.98,0.00,29.9,28.8,00.0,38.5,31.7,20.4,0000.0,0016.76,0006.36,0005.37
2022-08-31 07:23:00,,0831.5,5.01,0.00,29.9,28.9,00.0,38.6,31.7,20.6,0000.0,0018.13,0006.40,0005.38
2022-08-31 07:24:00,,0831.5,5.00,0.00,29.9,28.9,00.0,38.6,31.8,20.6,0000.0,0018.34,0006.40,0005.39
2022-08-31 07:25:00,,0831.5,5.00,0.00,29.9,28.9,00.0,38.6,31.8,20.5,0000.0,0019.22,0006.41,0005.41
2022-08-31 07:26:00,,0831.5,4.98,0.00,30.0,29.0,00.0,38.6,31.9,20.3,0000.0,0018.57,0006.44,0005.42
2022-08-31 07:27:00,,0831.5,4.99,0.00,30.0,28.8,00.0,38.6,31.9,20.2,0000.0,0017.46,0006.42,0005.43
2022-08-31 07:28:00,,0831.4,5.01,0.00,30.0,27.5,00.0,38.6,31.7,20.2,0000.0,0017.02,0006.41,0005.44
2022-08-31 07:29:00,,0831.5,4.99,0.00,29.9,26.9,00.0,38.6,31.7,20.3,0000.0,0016.72,0006.40,0005.44
2022-08-31 07:30:00,,0831.4,5.00,0.00,29.9,27.0,00.0,38.5,31.6,20.4,0000.0,0016.94,0006.39,0005.45
2022-08-31 07:31:00,,0831.4,4.99,0.00,29.8,27.2,00.0,38.5,31.5,20.4,0000.0,0016.21,0006.36,0005.45
2022-08-31 07:32:00,,0831.4,5.01,0.00,29.7,27.5,00.0,38.5,31.4,20.4,0000.0,0015.17,0006.34,0005.44
2022-08-31 07:33:00,,0831.5,5.00,0.00,29.7,27.8,00.0,38.5,31.4,20.3,0000.0,0015.49,0006.29,0005.43
2022-08-31 07:34:00,,0831.5,5.00,0.00,29.7,28.0,00.0,38.5,31.4,20.4,0000.0,0014.54,0006.24,0005.42
2022-08-31 07:35:00,,0831.4,5.00,0.00,29.7,28.1,00.0,38.5,31.5,20.3,0000.0,0015.47,0006.23,0005.40
2022-08-31 07:36:00,,0831.5,5.00,0.00,29.7,28.3,00.0,38.5,31.5,20.4,0000.0,0015.17,0006.23,0005.40
2022-08-31 07:37:00,,0831.5,5.00,0.00,29.7,28.4,00.0,38.5,31.6,20.1,0000.0,0015.22,0006.26,0005.39
2022-08-31 07:38:00,,0831.5,5.01,0.00,29.7,28.5,00.0,38.5,31.6,20.2,0000.0,0015.47,0006.29,0005.38
2022-08-31 07:39:00,,0831.5,4.98,0.00,29.8,28.6,00.0,38.5,31.6,20.2,0000.0,0015.82,0006.31,0005.37
2022-08-31 07:40:00,,0831.5,5.01,0.00,29.8,28.6,00.0,38.5,31.7,20.2,0000.0,0016.56,0006.34,0005.36
2022-08-31 07:41:00,,0831.5,5.00,0.00,29.8,28.7,00.0,38.5,31.7,20.3,0000.0,0016.52,0006.38,0005.35
2022-08-31 07:42:00,,0831.5,5.00,0.00,29.8,28.7,00.0,38.5,31.7,20.2,0000.0,0016.50,0006.38,0005.35
2022-08-31 07:43:00,,0831.5,5.00,0.00,29.8,28.8,00.0,38.5,31.7,20.1,0000.0,0016.40,0006.35,0005.34
2022-08-31 07:44:00,,0831.5,5.00,0.00,29.9,28.9,00.0,38.6,31.8,20.2,0000.0,0015.67,0006.35,0005.34
2022-08-31 07:45:00,,0831.5,4.99,0.00,29.9,28.9,00.0,38.6,31.8,20.1,0000.0,0015.46,0006.33,0005.32
2022-08-31 07:46:00,,0831.5,5.01,0.00,29.9,28.9,00.0,38.6,31.8,20.0,0000.0,0014.21,0006.36,0005.31
2022-08-31 07:47:00,,0831.5,5.00,0.00,30.0,29.0,00.0,38.6,31.9,20.0,0000.0,0013.67,0006.33,0005.30
2022-08-31 07:48:00,,0831.6,4.98,0.00,30.0,29.0,00.0,38.6,31.9,20.0,0000.0,0013.84,0006.26,0005.28
2022-08-31 07:49:00,,0831.5,5.01,0.00,30.0,29.1,00.0,38.7,31.9,19.9,0000.0,0013.72,0006.22,0005.27
2022-08-31 07:50:00,,0831.5,5.00,0.00,30.0,28.8,00.0,38.7,31.9,19.9,0000.0,0013.42,0006.20,0005.28
2022-08-31 07:51:00,,0831.4,4.99,0.00,30.0,27.4,00.0,38.7,31.8,19.9,0000.0,0012.40,0006.21,0005.29
2022-08-31 07:52:00,,0831.5,5.01,0.00,30.0,26.9,00.0,38.6,31.7,19.9,0000.0,0012.38,0006.18,0005.27
2022-08-31 07:53:00,,0831.4,5.01,0.00,29.9,27.0,00.0,38.6,31.6,20.0,0000.0,0012.48,0006.22,0005.28
2022-08-31 07:54:00,,0831.5,5.00,0.00,29.8,27.3,00.0,38.6,31.5,20.1,0000.0,0013.00,0006.30,0005.30
2022-08-31 07:55:00,,0831.4,5.00,0.00,29.8,27.6,00.0,38.5,31.5,20.1,0000.0,0013.99,0006.31,0005.30
2022-08-31 07:56:00,,0831.4,4.99,0.00,29.8,27.9,00.0,38.5,31.5,20.1,0000.0,0015.33,0006.31,0005.31
2022-08-31 07:57:00,,0831.4,5.00,0.00,29.8,28.1,00.0,38.5,31.5,20.1,0000.0,0015.59,0006.27,0005.31
2022-08-31 07:58:00,,0831.5,5.00,0.00,29.8,28.2,00.0,38.5,31.6,20.1,0000.0,0015.81,0006.28,0005.31
2022-08-31 07:59:00,,0831.4,5.01,0.00,29.8,28.4,00.0,38.5,31.6,20.2,0000.0,0015.34,0006.28,0005.32
